Hourly Data Report for October 02, 2019

All times are specified in Local Standard Time (LST). Add 1 hour to adjust for Daylight Saving Time where and when it is observed.

EUREKA CLIMATE
NUNAVUT
Current Station Operator: ECCC - MSC

79°59'21.000" N
85°56'02.000" W
10.00 m
2401199
71613
NEK

Download Data

Hourly Data (October 2019)
Hourly Data Report for October 2, 2019
TIME Temp Definition
°C
Dew Point Definition
°C
Rel Hum Definition
%
Wind Dir Definition
10's deg

Wind Spd Definition
km/h
Visibility Definition
km
Stn Press Definition
kPa
Hmdx Definition


Wind Chill Definition


Weather Definition


00:00 -4.5 -5.9 90 24 3   100.89   -6 LegendNANA
01:00 -4.4 -5.2 94 16 5   100.87   -7 LegendNANA
02:00 -5.3 -6.5 91 7 4   100.88   -7 LegendNANA
03:00 -7.7 -8.7 93 3 12   100.88   -13 LegendNANA
04:00 -9.0 -10.0 92 3 13   100.88   -15 LegendNANA
05:00 -9.6 -10.7 92 3 11   100.88   -15 LegendNANA
06:00 -6.7 -7.0 97 6 9   100.89   -11 LegendNANA
07:00 -7.5 -8.0 97 4 9   100.89   -12 LegendNANA
08:00 -6.0 -6.7 95 9 5   100.89   -8 LegendNANA
09:00 -7.6 -8.6 93 5 9   100.87   -12 LegendNANA
10:00 -8.0 -9.9 86 6 6   100.85   -11 LegendNANA
11:00 -6.4 -8.1 87 7 5   100.86   -9 LegendNANA
12:00 -8.2 -9.8 88 3 11   100.86   -13 LegendNANA
13:00 -6.7 -7.6 93 2 14   100.85   -12 LegendNANA
14:00 -4.4 -5.7 91 12 2   100.86   -5 LegendNANA
15:00 -3.8 -5.6 88   0   100.86     LegendNANA
16:00 -3.3 -4.0 94 29 5   100.86   -5 LegendNANA
17:00 -3.0 -4.3 90 29 18   100.87   -9 LegendNANA
18:00 -3.0 -4.4 91 30 12   100.87   -7 LegendNANA
19:00 -3.2 -4.4 91 28 16   100.87   -9 LegendNANA
20:00 -3.3 -4.4 92 29 13   100.88   -8 LegendNANA
21:00 -3.6 -4.7 92 30 9   100.89   -7 LegendNANA
22:00 -3.4 -4.7 91 29 13   100.91   -8 LegendNANA
23:00 -6.0 -7.2 91 36 9   100.90   -10 LegendNANA

Notes on Data Quality.

Legend

  • E = Estimated
  • M = Missing
  • NA = Not Available
Date modified: